Location: London
(51.5074°N, 0.1278°W)
Time: 09:18:05
(UTC+01:00)

X-37B - Visible Passes

Search period start: 18 September 2021 00:00
Search period end: 28 September 2021 00:00
Orbit: 381 x 393 km, 45.0° (Epoch: 29 August)

Date Brightness Start Highest point End Pass type
(mag) Time Alt. Az. Time Alt. Az. Time Alt. Az.
22 Sep 3.3 05:57:10 10° S 05:58:38 13° SSE 06:00:07 10° SE visible
24 Sep 2.8 05:36:10 10° SSW 05:38:14 17° SSE 05:40:23 10° ESE visible
25 Sep 3.2 04:40:29 12° SSE 04:40:29 12° SSE 04:41:35 10° SE visible
25 Sep 2.3 06:13:27 10° SW 06:16:04 24° S 06:18:42 10° ESE visible
26 Sep 2.4 05:17:04 19° S 05:17:52 21° SSE 05:20:21 10° ESE visible
27 Sep 3.4 04:21:20 12° SE 04:21:20 12° SE 04:21:51 10° ESE visible
27 Sep 2.1 05:53:37 13° SW 05:55:45 25° S 05:58:25 10° ESE visible
